User: anonymous   Login
Location: Kershaw
(34.5481°N, 80.5823°W)
Time: 12:23:59
(UTC+00:00)
Language:

A-11 Canister half - Orbit

View from above orbital plane
View from above orbital plane
View from above satellite
View from above satellite

Ground track
Ground track

The orbit data is extracted from the following two-line orbital elements,

1 00053U 60009E   22277.44981690 -.00000100  00000-0 -14332-3 0  9993
2 00053  47.2754 191.6019 0100237  39.7634 321.0449 12.17280465770767
Epoch (UTC): 04 October 2022 10:47:44
Eccentricity: 0.0100237
inclination: 47.2754°
perigee height: 1524 km
apogee height: 1684 km
right ascension of ascending node: 191.6019°
argument of perigee: 39.7634°
revolutions per day: 12.17280465
mean anomaly at epoch: 321.0449°
orbit number at epoch: 77076

The dashed part of the orbit path shows where the satellite is in the earth's shadow,  

DLR